This demonstration page uses our WeatherBlox Daily Observations layout. Learn more.

Left ArrowRight Arrow

Hourly Observations for March 4, 2015

Temp ( °F °C ) Dew Point ( °F °C ) Humidity (%) Winds ( mph kmh ) Pressure ( in mb ) Visibility ( mi km ) Precip ( " mm )
12:53 am 00:53 Clear N/A -5 -20.6 79 79 SW 9 15 30.38 1029 10 16 N/A
1:53 am 01:53 Clear N/A -5 -20.6 79 79 SW 10 17 30.38 1029 10 16 N/A
2:53 am 02:53 Clear -1 -18.3 -6 -21.1 79 79 W 3 6 30.38 1029 10 16 N/A
3:53 am 03:53 Clear -2 -18.9 -7 -21.7 79 79 WSW 5 7 30.37 1029 10 16 N/A
4:53 am 04:53 Clear -2 -18.9 -7 -21.7 79 79 WSW 8 13 30.39 1029 10 16 N/A
5:53 am 05:53 Clear -1 -18.3 -6 -21.1 79 79 SW 9 15 30.38 1029 10 16 N/A
6:53 am 06:53 Clear -3 -19.4 -7 -21.7 82 82 W 7 11 30.39 1029 10 16 N/A
7:53 am 07:53 Sunny 2 -16.7 -4 -20 76 76 NW 3 6 30.38 1029 10 16 N/A
8:53 am 08:53 Sunny 9 -12.8 1 -17.2 70 70 SW 5 7 30.37 1029 10 16 N/A
9:53 am 09:53 Sunny 18 -7.8 2 -16.7 49 49 WSW 10 17 30.35 1028 10 16 N/A
10:53 am 10:53 Sunny 21 -6.1 2 -16.7 43 43 WSW 14 22 30.34 1027 10 16 N/A
11:53 am 11:53 Sunny 25 -4 3 -16 39 39 WSW 14 22 30.33 1027 10 16 N/A
12:53 pm 12:53 Sunny 27 -2.8 3 -16.1 35 35 SW 13 20 30.28 1026 10 16 N/A
1:53 pm 13:53 Sunny 29 -1.7 4 -15.6 34 34 SSW 12 19 30.25 1024 10 16 N/A
2:53 pm 14:53 Sunny 31 -0.6 4 -15.6 31 31 SW 13 20 30.23 1024 10 16 N/A
3:53 pm 15:53 Sunny 32 undefined 5 -15 32 32 SSW 12 19 30.20 1023 10 16 N/A
4:53 pm 16:53 Sunny 32 undefined 6 -14.4 33 33 SSW 9 15 30.17 1022 10 16 N/A
5:53 pm 17:53 Sunny 29 -1.7 7 -13.9 39 39 SSW 6 9 30.16 1021 10 16 N/A
6:53 pm 18:53 Clear 23 -5 9 -12.8 55 55 SSE 5 7 30.16 1021 10 16 N/A
7:53 pm 19:53 Clear 24 -4.4 10 -12.2 55 55 N N/A 30.13 1020 10 16 N/A
8:53 pm 20:53 Clear 21 -6.1 10 -12.2 62 62 W 6 9 30.12 1020 10 16 N/A
9:53 pm 21:53 Clear 24 -4.4 14 -10 65 65 SW 14 22 30.11 1020 10 16 N/A
10:53 pm 22:53 Clear 27 -2.8 14 -10 58 58 WSW 13 20 30.11 1020 10 16 N/A
11:53 pm 23:53 Clear 26 -3.3 14 -10 60 60 SW 13 20 30.09 1019 10 16 N/A

Powered by AerisWeather